TAP686 LPPR-ELLX

Flight info

Callsign TAP686
Flight time N/A
Altitude 36000
Route TURON9E TURON P600 ASDEB DCT LOTEE DCT AZFIC UN741 NTS DCT PIWIZ DCT TSU UM163 LEQOS DCT CTL DCT MMD MMD2V
Aircraft A320/M-SDE3FGHIRWY/LB1

Departure

Time N/A
Airport Francisco de Sá Carneiro Airport (LPPR)

Arrival

Time 2026-05-04 16:35
Airport Luxembourg-Findel International Airport (ELLX)
Time Latitude Longitude Altitude Speed Heading
2026-05-04 15:57 48.65293 1.91162 35967 ft 481 kts 53°
2026-05-04 15:57 48.66707 1.93826 35970 ft 482 kts 53°
2026-05-04 15:59 48.71165 2.02250 35975 ft 482 kts 53°
2026-05-04 16:00 48.74561 2.09401 35973 ft 480 kts 60°
2026-05-04 16:00 48.75958 2.13112 35967 ft 478 kts 65°
2026-05-04 16:01 48.78501 2.21838 35954 ft 475 kts 71°
2026-05-04 16:01 48.80946 2.31057 35946 ft 474 kts 71°
2026-05-04 16:02 48.83402 2.40300 35937 ft 473 kts 71°
2026-05-04 16:03 48.87076 2.54192 35935 ft 471 kts 71°
2026-05-04 16:03 48.89496 2.63382 35928 ft 471 kts 71°
2026-05-04 16:04 48.91915 2.72612 35931 ft 471 kts 71°
2026-05-04 16:04 48.95533 2.86484 35933 ft 471 kts 71°
2026-05-04 16:05 48.97947 2.95784 35937 ft 471 kts 71°
2026-05-04 16:06 49.01543 3.09711 35950 ft 472 kts 71°
2026-05-04 16:07 49.06302 3.28272 35258 ft 471 kts 72°
2026-05-04 16:07 49.09907 3.42426 32249 ft 486 kts 72°
2026-05-04 16:08 49.11130 3.47258 31183 ft 489 kts 72°
2026-05-04 16:08 49.14434 3.61516 29688 ft 461 kts 78°
2026-05-04 16:09 49.16015 3.70852 28590 ft 448 kts 79°
2026-05-04 16:09 49.17560 3.79978 27530 ft 437 kts 78°
2026-05-04 16:10 49.19057 3.88846 26502 ft 425 kts 78°
2026-05-04 16:11 49.21204 4.01648 25021 ft 409 kts 79°
2026-05-04 16:11 49.21904 4.05841 24521 ft 405 kts 78°
2026-05-04 16:12 49.23963 4.18247 23029 ft 397 kts 79°
2026-05-04 16:12 49.25969 4.30411 21579 ft 389 kts 78°
2026-05-04 16:13 49.27266 4.38321 20657 ft 383 kts 78°
2026-05-04 16:13 49.28546 4.46163 19724 ft 377 kts 78°
2026-05-04 16:14 49.29803 4.53912 18794 ft 371 kts 78°
2026-05-04 16:14 49.31033 4.61521 17836 ft 365 kts 78°
2026-05-04 16:15 49.32828 4.72679 16506 ft 357 kts 78°
2026-05-04 16:16 49.34002 4.80027 15605 ft 353 kts 78°
2026-05-04 16:16 49.35731 4.90899 14282 ft 347 kts 78°
2026-05-04 16:17 49.36865 4.98063 13391 ft 343 kts 78°
2026-05-04 16:18 49.38513 5.08532 12127 ft 334 kts 78°
2026-05-04 16:18 49.39055 5.11982 11704 ft 332 kts 77°
2026-05-04 16:19 49.41255 5.22248 10726 ft 352 kts 72°
2026-05-04 16:19 49.42787 5.29272 10356 ft 338 kts 72°
2026-05-04 16:20 49.44885 5.38922 9985 ft 300 kts 73°
2026-05-04 16:20 49.46209 5.45070 9977 ft 305 kts 73°
2026-05-04 16:21 49.48195 5.54354 9977 ft 304 kts 75°
2026-05-04 16:22 49.48506 5.60754 9977 ft 301 kts 97°
2026-05-04 16:22 49.48007 5.70402 9975 ft 302 kts 97°
2026-05-04 16:23 49.47718 5.76232 9978 ft 303 kts 97°
2026-05-04 16:24 49.47061 5.89138 9986 ft 303 kts 97°
2026-05-04 16:25 49.46725 5.95623 9984 ft 304 kts 98°
2026-05-04 16:26 49.47533 6.08503 9282 ft 313 kts 72°
2026-05-04 16:26 49.49657 6.17741 8206 ft 301 kts 73°
2026-05-04 16:27 49.51009 6.23732 7508 ft 293 kts 73°
2026-05-04 16:28 49.53302 6.31194 6347 ft 296 kts 51°
2026-05-04 16:28 49.57295 6.38475 5536 ft 299 kts 51°
2026-05-04 16:29 49.62884 6.48793 4537 ft 269 kts 45°
2026-05-04 16:30 49.67149 6.49766 3887 ft 235 kts 326°
2026-05-04 16:31 49.69753 6.46943 3383 ft 220 kts 306°
2026-05-04 16:31 49.70069 6.41233 2996 ft 168 kts 238°
2026-05-04 16:32 49.68479 6.36869 3001 ft 153 kts 235°
2026-05-04 16:33 49.67478 6.34165 2844 ft 144 kts 236°
2026-05-04 16:33 49.66546 6.31655 2482 ft 135 kts 235°
2026-05-04 16:34 49.65616 6.29148 2116 ft 135 kts 236°
2026-05-04 16:34 49.65209 6.28048 1938 ft 135 kts 236°
2026-05-04 16:35 49.63796 6.24217 1381 ft 139 kts 237°
2026-05-04 16:35 49.62696 6.21287 1244 ft 35 kts 241°
2026-05-04 16:36 49.62652 6.21008 1238 ft 19 kts 265°
2026-05-04 16:36 49.62718 6.20732 1242 ft 13 kts 358°
2026-05-04 16:37 49.62841 6.20886 1245 ft 15 kts 66°
2026-05-04 16:37 49.62889 6.21044 1245 ft 18 kts 66°
2026-05-04 16:37 49.62979 6.21328 1232 ft 19 kts 65°
2026-05-04 16:38 49.63066 6.21606 1227 ft 2 kts 64°
2026-05-04 16:39 49.63123 6.21767 1227 ft 8 kts 31°
2026-05-04 16:39 49.63235 6.21690 1230 ft 7 kts 325°
2026-05-04 16:40 49.63297 6.21716 1231 ft 3 kts 54°
2026-05-04 16:40 49.63333 6.21705 1231 ft 4 kts 333°
2026-05-04 16:41 49.63355 6.21686 1231 ft 0 kts 330°